Regional Weather Roundup
Issued by NWS

Home | Current Version | Previous Version | Graphics & Text | Print | Product List | Glossary On
Versions: 1 2 3 4 5 6 7 8 9 10 11 12 13 14 15 16 17 18 19 20 21 22 23 24 25 26 27 28 29 30 31 32 33 34 35 36 37 38 39 40 41 42 43 44 45 46 47 48 49 50
000
ASUS43 KLMK 201402
RWRKY
KENTUCKY REGIONAL WEATHER ROUNDUP
NATIONAL WEATHER SERVICE LOUISVILLE KY
1000 AM EDT SAT SEP 20 2014

NOTE "FAIR" INDICATES FEW OR NO CLOUDS BELOW 12,000 FEET
WITH NO SIGNIFICANT WEATHER AND/OR OBSTRUCTIONS TO VISIBILITY.

KYZ001>023-026-027-061>063-070>075-201500-
WESTERN AND SOUTH CENTRAL KENTUCKY

CITY           SKY/WX    TMP DP  RH WIND       PRES   REMARKS
PADUCAH        MOSUNNY   76  66  71 S7        30.08R
HENDERSON      SUNNY     72  64  78 S7        30.08S
OWENSBORO      MOSUNNY   74  66  75 SW14      30.10S
HOPKINSVILLE   SUNNY     74  68  82 S7        30.12R
BOWLING GREEN  PTSUNNY   72  64  76 S9        30.14R
GLASGOW        CLOUDY    71  62  74 S5        30.15R
$$

KYZ024-025-028>034-038-045-046-053-201500-
NORTH CENTRAL KENTUCKY

CITY           SKY/WX    TMP DP  RH WIND       PRES   REMARKS
LOUISVILLE/SDF PTSUNNY   74  64  71 S14G25    30.10S
LOUISVILLE/LOU CLOUDY    72  64  76 S6        30.12R
FORT KNOX      MOSUNNY   72  65  79 S14       30.11S
$$

KYZ035>037-039>044-047>052-055>060-089>105-201500-
NORTHEAST KENTUCKY

CITY           SKY/WX    TMP DP  RH WIND       PRES   REMARKS
LEXINGTON      CLOUDY    71  62  73 S12       30.15R
COVINGTON      MOSUNNY   69  63  81 SW10G20   30.10S
FRANKFORT      MOSUNNY   68  62  81 S10       30.13R
$$

KYZ054-064>069-076>088-106>120-201500-
SOUTHEAST KENTUCKY

CITY           SKY/WX    TMP DP  RH WIND       PRES   REMARKS
JACKSON        MOSUNNY   68  59  73 CALM      30.18S
LONDON         MOSUNNY   69  59  70 S5        30.19R
SOMERSET       SUNNY     68  59  73 S5        30.18S
MIDDLESBORO    SUNNY     69  59  69 CALM      30.21S
MONTICELLO     SUNNY     74  62  66 S5        30.18S
$$




USA.gov is the U.S. government's official web portal to all federal, state and local government web resources and services.